Wetbulb
55.61 55.39 55.06 54.31 53.72 53.24 52.89 52.75 52.54 52.97 53.43 54.17 55.48 55.44 55.60 55.13 55.02 51.62 47.71 49.43 49.53 48.09 48.39 48.80 49.30 46.30 45.31 44.35 41.08 43.95 43.21 43.93 43.43 41.09 40.91 40.72 40.22 41.69 40.61 41.04 39.20 38.94 37.35 38.04 38.61 37.08 38.07 51.82 52.97 47.41 48.77 51.21 53.32 54.40
55.55 55.31 55.00 54.35 53.72 52.95 52.77 52.35 52.39 52.65 53.18 54.58 54.98 54.92 54.80 54.19 54.06 51.70 45.44 49.07 50.01 47.68 46.46 48.90 51.20 52.52 51.00 49.55 45.60 43.80 42.65 42.53 44.75 41.85 41.26 41.99 41.78 42.48 40.26 38.75 45.42 40.80 42.02 39.73 41.61 41.94 48.19 50.98 51.36 53.18 52.68 51.32 54.34 55.75
55.43 55.29 54.98 54.11 53.52 52.67 52.46 52.04 52.13 52.46 53.14 54.13 55.04 54.58 54.21 54.12 53.84 51.62 48.18 47.17 46.18 47.26 44.96 43.35 45.62 49.30 50.44 51.72 53.24 44.36 44.28 46.36 44.77 46.81 43.37 45.62 41.22 44.25 40.60 42.06 42.45 45.27 47.83 44.58 45.23 46.57 49.15 52.56 54.34 55.29 56.06 54.79 55.94 60.54
55.23 55.15 54.79 54.01 53.35 52.57 52.22 51.86 51.77 52.50 53.33 54.51 54.88 54.21 54.00 53.92 53.60 52.59 44.86 45.44 45.10 47.48 43.76 42.53 49.94 47.55 50.38 49.43 51.76 52.27 48.59 47.66 45.92 44.76 42.75 43.31 43.85 46.90 43.33 44.87 43.57 46.71 47.24 44.82 45.09 47.83 50.06 52.32 54.05 55.98 56.69 60.61 62.28 62.44
54.85 55.09 54.53 53.79 52.87 52.49 51.68 51.49 51.67 52.53 53.74 54.68 54.04 54.04 54.21 54.06 53.49 50.07 45.72 46.05 47.55 46.16 43.34 42.71 47.08 47.38 48.18 47.97 48.75 50.61 49.69 48.31 45.01 45.13 42.28 40.03 42.72 44.73 43.14 44.09 42.59 47.67 46.70 44.82 43.32 49.20 51.43 51.41 53.65 56.67 57.03 56.54 61.57 61.52
54.39 54.69 54.01 53.32 52.79 52.02 51.59 51.30 51.57 52.65 53.42 53.80 53.58 53.31 53.45 53.39 51.87 44.76 43.53 50.24 50.98 51.12 46.61 39.57 43.89 46.03 48.07 50.02 49.56 46.83 47.50 47.59 47.41 41.85 42.32 42.89 45.23 46.26 40.95 39.15 44.25 48.02 50.10 50.75 48.86 51.22 53.11 55.18 56.38 57.20 57.03 57.36 59.37 61.76
54.28 54.43 53.70 52.98 52.42 51.77 51.33 51.22 51.74 52.59 53.02 52.63 52.50 52.51 52.25 51.77 46.09 42.35 42.87 50.23 50.96 49.13 46.27 40.72 38.70 44.39 47.30 48.14 48.27 48.34 50.35 50.17 49.54 47.33 45.67 44.28 44.89 46.37 40.82 40.98 46.44 48.45 49.83 51.06 53.95 53.16 52.50 55.04 53.82 56.92 58.23 58.60 59.83 62.27
54.10 53.85 53.10 52.74 52.18 51.58 51.09 51.07 51.92 52.67 52.14 52.05 52.20 52.21 51.77 51.54 49.67 47.17 48.45 50.76 50.09 46.30 45.21 40.76 38.95 40.79 45.80 44.29 43.22 45.86 44.55 43.93 44.03 44.32 43.68 42.51 42.90 42.52 40.25 44.64 47.02 48.92 50.58 50.44 51.27 53.70 53.92 54.62 55.63 56.42 58.07 57.98 60.35 59.66
53.80 53.28 52.78 52.39 51.96 51.17 50.68 51.14 51.88 52.27 52.38 52.12 52.25 51.99 46.46 44.13 43.24 50.31 55.17 52.07 50.01 46.07 41.32 42.92 39.60 35.42 44.18 42.75 45.33 44.79 43.70 39.70 42.67 41.76 42.09 42.77 40.57 38.70 42.94 43.90 45.24 47.05 47.00 47.91 50.40 51.12 52.45 53.51 53.59 54.94 56.35 56.69 59.45 58.81
53.36 52.75 52.30 51.99 51.58 50.63 50.77 51.11 51.71 52.39 51.84 51.90 46.87 44.28 42.22 47.75 53.31 53.76 50.36 47.25 46.78 47.66 44.59 41.10 41.20 39.65 42.62 46.49 45.71 45.91 46.31 41.84 37.78 42.86 45.52 43.71 40.99 44.27 45.96 48.07 49.87 49.78 50.31 50.91 47.72 47.81 49.56 51.22 52.48 53.49 55.36 56.44 59.22 59.41
52.71 52.26 51.91 51.78 50.84 50.52 50.72 51.56 51.71 51.49 50.69 46.58 42.73 41.77 45.97 50.90 50.84 49.29 45.98 43.61 43.80 41.09 41.69 43.13 43.12 41.62 47.95 42.72 44.21 46.94 43.58 42.14 39.11 44.29 43.72 43.28 39.47 46.69 51.75 51.24 53.08 52.05 53.47 53.99 53.24 52.47 52.04 52.66 53.19 54.36 55.61 57.12 58.99 59.04
52.35 52.05 51.66 51.24 50.63 50.61 51.10 51.37 51.21 46.05 44.54 44.86 43.75 45.74 45.97 43.67 46.16 44.24 42.42 44.24 43.19 38.49 43.71 42.66 44.29 42.97 46.60 49.76 45.20 45.56 42.43 43.85 39.14 46.83 44.26 42.34 45.27 48.96 50.25 50.51 51.22 52.69 53.80 54.37 53.22 53.17 55.38 55.25 55.77 55.62 56.08 57.24 57.96 60.09
51.84 51.73 51.23 50.64 50.54 50.66 51.48 50.83 50.30 49.33 47.47 45.46 45.10 43.75 41.95 43.24 37.03 39.78 34.64 37.65 42.87 46.83 48.18 47.05 46.36 48.09 48.58 48.64 45.51 44.58 41.60 40.69 47.30 42.21 41.91 46.24 48.72 50.41 50.63 51.04 51.24 53.23 54.17 54.51 52.97 56.36 57.09 58.00 58.85 57.94 56.80 57.05 59.40 59.33
51.53 51.14 50.64 50.37 50.38 51.18 51.21 50.47 50.48 49.19 44.99 41.49 42.84 35.25 40.78 39.44 38.91 37.79 42.47 44.93 47.21 46.44 48.18 48.12 46.36 47.10 48.15 45.13 45.17 41.46 43.81 44.74 40.46 38.03 41.17 46.64 48.69 51.23 53.19 53.08 52.04 52.58 54.27 54.06 54.10 56.49 57.05 56.70 56.97 58.01 58.66 58.46 57.51 56.85
50.91 50.49 50.31 50.09 50.23 51.43 51.02 50.37 50.09 46.58 43.53 42.95 43.42 35.45 38.33 41.58 41.73 46.69 46.94 47.19 49.30 50.18 48.34 45.41 47.57 48.73 46.41 44.70 45.33 43.99 41.83 39.88 42.20 41.24 45.44 48.90 51.70 53.04 53.47 54.32 54.09 54.02 53.90 53.88 54.26 55.92 56.16 56.86 57.73 57.99 58.77 58.84 57.49 57.40
50.17 49.53 48.37 49.87 50.34 51.41 50.61 49.76 47.58 46.58 45.64 44.09 43.09 39.48 40.38 40.15 43.11 43.98 43.41 44.89 48.27 48.45 45.86 45.37 46.10 45.82 44.11 44.58 42.75 42.01 40.51 39.71 43.35 47.65 50.50 52.28 52.58 53.40 54.00 54.32 54.99 55.79 55.73 54.80 55.53 55.83 56.20 56.89 57.37 57.41 57.92 57.19 57.52 58.10
48.95 45.79 49.71 50.08 51.03 51.04 50.20 46.94 45.80 43.59 42.80 42.72 40.35 40.93 39.68 39.92 41.37 42.06 43.00 45.12 47.28 43.60 40.84 43.86 43.62 44.00 45.88 43.41 41.84 44.06 42.87 45.33 48.26 49.79 51.98 52.90 52.99 53.66 54.34 55.01 55.71 56.53 57.35 57.39 55.89 56.88 57.70 57.62 57.13 56.69 55.69 56.43 57.35 58.67
46.60 48.65 50.97 50.75 49.45 49.02 47.04 47.21 45.28 44.46 40.98 40.52 37.46 38.03 39.42 41.07 42.95 40.96 41.95 46.76 45.01 45.81 45.65 43.69 45.28 43.51 43.07 41.11 42.01 46.04 47.23 47.91 49.15 50.06 51.20 53.20 53.80 54.51 55.13 55.30 56.45 56.85 56.39 56.57 57.15 57.06 57.03 56.39 55.49 54.97 56.00 57.37 58.44 58.62
47.96 49.53 51.08 50.76 48.43 45.89 43.02 43.78 44.87 39.27 39.91 39.96 39.70 39.78 40.29 41.76 45.13 43.61 43.98 46.85 45.40 45.93 47.58 46.84 44.39 43.13 44.74 45.76 46.00 47.42 48.32 47.12 47.57 49.35 50.29 52.39 54.12 54.30 54.85 55.97 56.05 56.15 55.91 55.85 56.13 56.01 55.89 56.37 56.15 57.25 57.63 58.25 57.45 58.21
51.11 51.18 51.12 51.00 50.25 45.55 43.51 42.39 43.89 39.19 37.62 40.15 40.16 39.84 40.57 41.21 42.32 43.35 45.08 46.21 45.45 47.31 42.83 43.53 43.65 44.63 47.36 47.01 47.39 48.14 49.09 48.65 48.13 47.86 48.88 52.23 53.51 54.11 54.63 54.72 55.12 56.03 55.69 55.99 55.95 52.08 56.11 56.07 56.69 56.69 57.18 57.04 57.08 57.28
49.62 50.53 51.11 48.79 46.35 46.25 44.15 44.44 43.99 42.59 41.55 40.12 42.19 42.09 42.71 43.11 43.24 43.28 44.87 47.85 46.04 44.19 42.47 45.57 45.40 45.20 47.35 48.02 49.49 49.93 50.21 49.61 48.52 49.00 50.40 51.23 53.37 53.74 54.66 55.41 55.65 55.09 54.02 53.45 54.27 54.26 54.24 55.07 55.31 56.80 56.50 56.39 56.40 57.25
48.40 50.19 46.63 47.86 44.64 45.75 43.74 44.35 43.36 45.14 42.23 41.77 41.77 43.01 42.99 43.58 43.85 45.30 46.38 45.07 42.32 42.99 43.69 45.70 46.72 47.76 48.90 49.16 49.97 50.51 51.35 51.53 50.00 50.36 48.58 50.76 53.50 54.22 54.46 55.12 55.59 54.54 54.17 53.90 54.33 54.17 54.41 54.59 55.60 56.73 57.19 57.11 55.93 58.40
49.91 48.14 44.71 44.71 41.43 41.02 40.71 45.92 42.12 44.55 42.39 44.47 44.20 40.11 40.05 41.30 43.39 44.40 42.53 43.58 44.62 46.83 47.73 47.28 47.98 50.00 50.15 51.05 51.12 51.64 51.73 51.42 50.79 51.61 52.36 53.30 54.91 55.75 55.47 55.51 55.32 54.70 53.80 53.11 54.43 54.17 53.76 50.19 52.75 54.56 55.79 56.90 56.98 56.25
49.32 44.64 44.12 43.32 41.27 37.96 43.87 42.36 44.39 42.23 45.40 42.61 39.39 38.31 41.33 40.43 45.05 41.21 39.31 42.65 45.79 48.40 49.09 49.24 48.62 49.12 49.19 48.85 48.74 49.72 50.46 51.31 50.97 51.19 53.07 52.73 54.00 54.26 54.97 54.19 54.29 53.55 53.07 53.10 53.29 53.03 53.09 53.12 49.52 53.81 54.84 55.37 55.06 54.30
40.29 39.60 40.96 34.54 41.09 42.43 42.06 42.37 43.16 43.76 41.53 42.04 41.41 42.01 43.87 46.56 43.56 43.22 43.19 45.67 47.73 48.37 49.90 51.01 50.03 48.22 47.77 48.63 49.15 49.90 52.92 51.80 51.01 50.62 52.57 53.75 55.07 52.61 52.74 53.09 52.41 52.40 53.21 52.86 52.03 51.88 51.97 52.70 53.03 53.10 53.26 53.30 52.92 52.77
35.31 37.75 35.68 40.49 40.70 40.40 43.21 40.70 41.74 40.66 42.32 42.00 42.84 44.86 45.96 45.07 42.96 41.55 44.31 46.55 47.54 49.37 50.52 50.87 51.17 49.42 49.01 48.77 49.19 51.31 51.97 53.17 53.73 52.47 52.43 55.21 52.28 50.27 48.99 48.94 50.00 51.44 53.24 53.28 53.22 52.58 52.14 52.47 52.70 52.84 52.23 51.50 46.47 53.82
33.84 35.15 39.45 43.78 43.42 44.55 43.68 44.19 45.48 43.57 42.35 42.49 44.25 44.90 44.07 40.37 41.32 44.19 48.40 48.58 48.19 49.10 49.70 50.60 52.35 52.37 49.98 50.46 52.00 51.08 51.15 53.33 53.14 52.87 53.15 52.10 50.55 49.75 49.97 49.89 49.99 51.17 53.27 53.04 52.46 52.05 51.02 50.76 50.56 50.49 50.52 50.95 51.61 52.51
39.18 38.89 38.63 42.22 41.35 42.57 42.01 42.95 43.42 42.46 43.03 44.94 45.29 42.97 41.84 43.35 44.66 47.25 47.98 49.46 49.98 51.51 51.76 51.81 52.04 52.27 52.20 51.95 50.88 50.35 49.94 51.56 51.37 50.64 50.49 49.80 49.40 50.09 50.93 51.09 51.37 45.87 51.65 52.08 52.02 51.87 51.45 51.06 50.46 50.30 50.16 49.84 49.66 50.29
39.55 42.27 42.43 41.16 43.45 43.67 43.63 43.56 43.85 44.65 46.03 46.33 42.21 41.60 46.42 49.59 51.04 50.22 50.76 51.12 50.93 51.09 51.82 52.11 51.75 51.87 51.59 51.43 50.76 49.40 50.06 50.76 49.51 47.58 47.15 47.11 48.32 49.95 50.57 50.74 51.11 51.62 52.11 52.17 45.39 48.81 52.40 51.64 51.42 51.23 51.12 50.67 50.43 50.47
40.03 43.43 43.38 44.24 43.43 42.94 45.72 46.75 46.35 47.86 49.22 47.58 46.62 46.62 48.55 50.48 51.43 52.39 50.97 50.45 50.57 50.78 51.40 52.43 52.45 51.41 49.88 49.50 49.68 50.23 50.80 50.15 50.02 49.77 47.68 47.68 49.19 51.28 51.40 50.93 51.07 51.20 51.47 52.65 53.00 52.73 45.44 50.67 49.41 52.70 51.75 51.43 51.09 50.74
44.92 45.06 44.27 44.34 43.97 46.79 48.63 48.97 47.58 48.37 47.62 47.08 47.87 47.82 47.26 48.95 50.39 50.74 50.22 50.22 50.82 51.56 51.52 51.31 51.62 52.33 52.29 51.68 50.33 50.84 51.19 52.16 51.49 51.64 51.65 51.33 51.54 52.16 52.59 52.56 52.06 51.34 51.90 53.49 53.18 53.03 53.18 52.39 52.27 52.10 51.90 51.39 51.11 50.17
45.23 44.10 44.86 44.50 45.82 49.18 50.42 50.12 48.14 46.51 45.63 45.90 46.37 47.28 46.21 46.12 45.80 48.89 49.83 51.07 50.46 50.80 48.93 50.20 50.95 51.45 52.47 52.99 52.88 52.06 45.93 51.15 51.32 52.37 53.12 51.86 52.59 52.77 53.01 53.46 54.70 54.58 53.32 53.84 53.19 53.21 53.76 52.59 51.55 50.91 50.50 49.50 50.59 50.72
43.36 44.19 46.77 47.42 46.56 46.32 46.58 47.65 46.03 44.28 44.58 44.51 45.14 46.00 46.72 45.36 45.54 48.76 50.60 51.49 52.00 51.70 51.69 51.94 52.00 51.66 52.20 52.60 52.83 51.52 46.68 50.00 47.60 43.79 44.13 44.26 45.46 48.27 52.12 53.06 54.69 55.12 54.35 53.06 52.48 52.43 53.21 53.94 50.57 48.03 46.99 46.34 45.39 45.30
MSLP
1021.07 1021.11 1021.12 1021.13 1021.21 1021.26 1021.20 1021.10 1020.90 1020.62 1020.39 1020.07 1019.74 1019.46 1019.17 1018.95 1018.64 1018.53 1018.44 1018.02 1018.00 1017.65 1016.13 1015.26 1015.01 1014.93 1014.83 1014.88 1015.02 1014.37 1013.72 1013.26 1012.55 1012.33 1012.07 1011.40 1010.80 1009.77 1009.35 1008.76 1008.61 1008.98 1009.20 1009.30 1008.92 1007.98 1006.49 1004.77 1004.23 1004.47 1003.96 1003.29 1003.02 1003.01
1020.51 1020.61 1020.66 1020.69 1020.87 1020.99 1020.93 1020.91 1020.69 1020.48 1020.27 1019.93 1019.69 1019.50 1019.31 1019.08 1018.80 1018.59 1018.62 1018.13 1018.21 1018.19 1016.31 1015.17 1014.41 1013.92 1013.82 1013.65 1014.43 1014.55 1014.02 1013.69 1012.85 1012.79 1012.49 1011.94 1011.29 1010.61 1010.07 1009.48 1008.91 1009.37 1009.06 1009.13 1008.91 1007.46 1005.99 1005.45 1005.08 1004.46 1004.32 1004.19 1003.01 1003.05
1019.97 1020.04 1020.15 1020.23 1020.46 1020.63 1020.66 1020.67 1020.49 1020.29 1020.09 1019.82 1019.59 1019.41 1019.27 1019.08 1018.87 1018.82 1018.89 1018.62 1018.31 1017.87 1016.18 1015.19 1013.65 1012.92 1012.90 1013.10 1013.13 1014.08 1013.45 1012.72 1012.53 1012.25 1012.38 1012.01 1011.81 1011.23 1010.85 1010.23 1009.49 1009.08 1009.05 1009.09 1008.52 1007.16 1006.48 1005.71 1005.11 1004.72 1004.54 1004.24 1003.65 1002.76
1019.37 1019.42 1019.57 1019.81 1020.04 1020.23 1020.34 1020.29 1020.26 1020.14 1019.88 1019.54 1019.40 1019.29 1019.15 1018.93 1018.78 1018.68 1018.89 1018.69 1018.65 1018.16 1017.30 1014.72 1013.24 1012.64 1012.16 1012.13 1012.30 1012.09 1012.05 1012.24 1012.46 1012.42 1012.53 1012.24 1011.90 1011.12 1011.05 1010.53 1010.06 1009.25 1009.14 1009.00 1008.51 1007.38 1006.44 1005.87 1005.43 1004.99 1004.73 1004.02 1003.67 1003.35
1018.75 1018.84 1019.03 1019.31 1019.64 1019.83 1019.96 1020.01 1019.97 1019.89 1019.61 1019.39 1019.27 1019.09 1018.99 1018.76 1018.48 1018.47 1018.41 1018.35 1018.15 1018.31 1017.53 1015.43 1013.73 1012.29 1011.85 1011.77 1011.78 1011.93 1012.29 1012.70 1012.91 1012.74 1012.61 1012.22 1011.27 1011.14 1010.88 1010.66 1009.73 1009.25 1008.82 1008.72 1008.08 1007.35 1007.18 1006.50 1005.77 1005.49 1005.20 1004.87 1004.42 1003.50
1018.13 1018.28 1018.47 1018.85 1019.18 1019.41 1019.59 1019.65 1019.60 1019.63 1019.36 1019.13 1019.09 1019.01 1018.80 1018.59 1018.28 1018.45 1018.28 1018.03 1017.80 1017.72 1017.61 1016.35 1014.12 1012.68 1011.83 1011.26 1011.47 1011.63 1011.96 1012.40 1012.45 1012.62 1011.75 1011.14 1010.27 1010.32 1010.56 1010.11 1009.01 1008.36 1007.82 1007.43 1007.08 1006.62 1006.65 1006.38 1005.85 1005.43 1005.11 1004.76 1004.57 1004.45
1017.51 1017.70 1018.04 1018.44 1018.83 1019.08 1019.26 1019.34 1019.25 1019.24 1019.02 1018.92 1018.92 1018.77 1018.60 1018.49 1018.63 1018.65 1018.36 1017.89 1017.78 1017.93 1017.76 1016.81 1015.23 1013.18 1012.24 1011.79 1011.73 1011.68 1011.59 1011.61 1011.81 1011.57 1011.38 1010.91 1010.25 1009.95 1009.62 1008.65 1008.30 1007.62 1007.08 1006.63 1006.45 1006.57 1006.38 1006.22 1005.79 1005.18 1005.03 1004.79 1004.49 1004.55
1016.96 1017.25 1017.65 1018.08 1018.45 1018.74 1019.00 1019.07 1019.00 1018.86 1018.75 1018.62 1018.57 1018.39 1018.16 1018.08 1018.19 1018.04 1017.30 1017.04 1017.58 1017.88 1017.77 1017.31 1015.75 1014.30 1012.83 1012.68 1012.51 1012.17 1012.04 1012.00 1011.65 1011.42 1011.08 1010.71 1010.16 1009.75 1008.96 1007.68 1007.17 1006.79 1006.51 1006.26 1006.03 1005.91 1005.60 1005.77 1005.57 1005.27 1005.00 1005.03 1005.00 1005.25
1016.41 1016.82 1017.25 1017.84 1018.08 1018.46 1018.63 1018.73 1018.78 1018.57 1018.44 1018.30 1018.16 1017.96 1018.09 1018.11 1018.00 1017.27 1016.91 1017.12 1017.31 1017.89 1017.53 1017.18 1016.41 1015.07 1013.39 1013.12 1012.79 1012.52 1012.51 1012.46 1011.98 1011.49 1010.89 1010.40 1009.50 1008.82 1007.41 1007.16 1006.98 1006.77 1006.70 1006.13 1005.52 1005.33 1005.40 1005.47 1005.16 1004.95 1005.12 1005.18 1005.34 1005.43
1016.05 1016.56 1017.04 1017.49 1017.86 1018.13 1018.31 1018.44 1018.43 1018.27 1018.15 1018.08 1018.06 1018.13 1017.99 1017.53 1017.12 1016.91 1016.89 1017.11 1017.24 1017.21 1017.33 1016.83 1016.09 1015.21 1014.19 1013.53 1013.00 1012.90 1012.50 1012.38 1011.90 1010.50 1010.12 1009.70 1008.56 1007.27 1006.50 1006.34 1006.47 1006.45 1006.22 1006.04 1005.87 1005.09 1004.87 1004.70 1004.80 1004.52 1004.45 1004.55 1004.78 1005.12
1015.78 1016.40 1016.88 1017.36 1017.66 1017.91 1018.11 1018.21 1018.17 1018.10 1017.81 1017.98 1018.36 1018.36 1017.59 1017.07 1017.01 1016.76 1016.59 1016.70 1016.77 1016.76 1016.46 1015.66 1015.29 1014.84 1013.61 1013.60 1013.29 1012.92 1012.61 1012.17 1011.65 1010.14 1009.69 1008.60 1007.75 1006.46 1005.95 1006.13 1005.95 1005.73 1005.44 1005.16 1004.87 1004.23 1003.94 1003.89 1003.86 1003.72 1003.79 1004.03 1004.09 1004.44
1015.60 1016.18 1016.68 1017.11 1017.43 1017.65 1017.91 1018.03 1018.11 1018.19 1018.23 1018.41 1018.61 1018.24 1017.89 1017.41 1016.87 1016.60 1016.04 1015.86 1015.76 1015.33 1014.83 1014.71 1014.15 1014.21 1013.61 1013.28 1013.14 1012.74 1012.41 1011.82 1010.78 1010.31 1009.38 1007.86 1006.81 1006.30 1005.86 1005.18 1004.90 1004.77 1004.49 1004.01 1003.43 1003.18 1003.06 1003.06 1003.01 1002.93 1003.09 1003.43 1003.68 1004.07
1015.49 1016.11 1016.65 1017.01 1017.29 1017.51 1017.72 1017.90 1017.97 1017.95 1018.10 1018.42 1018.44 1018.18 1017.90 1017.23 1016.73 1016.09 1015.37 1014.77 1014.32 1013.96 1013.63 1013.68 1013.62 1013.36 1013.15 1013.11 1012.90 1012.65 1012.02 1011.07 1010.27 1009.66 1008.15 1006.86 1006.43 1005.90 1005.09 1004.50 1004.11 1003.79 1003.60 1003.07 1002.48 1002.37 1002.36 1002.46 1002.48 1002.53 1002.72 1002.93 1003.33 1004.03
1015.49 1016.02 1016.49 1016.82 1017.14 1017.41 1017.62 1017.81 1017.91 1017.99 1018.21 1018.44 1018.02 1017.81 1017.15 1016.44 1015.86 1015.05 1014.28 1013.75 1013.28 1013.08 1013.08 1013.19 1013.14 1012.96 1012.69 1012.83 1012.60 1012.24 1011.51 1010.94 1009.90 1009.10 1007.96 1006.99 1005.97 1004.56 1003.23 1002.53 1002.95 1002.73 1002.66 1002.32 1001.92 1001.76 1001.86 1002.01 1002.23 1002.46 1002.31 1002.61 1002.90 1003.54
1015.49 1016.03 1016.44 1016.75 1017.00 1017.32 1017.53 1017.72 1017.89 1018.09 1018.16 1018.06 1017.72 1017.09 1016.22 1015.35 1014.75 1014.00 1013.63 1013.31 1012.77 1012.48 1012.66 1012.87 1012.62 1012.34 1012.34 1012.37 1012.17 1011.80 1011.18 1010.41 1009.65 1008.72 1007.56 1006.32 1004.62 1003.97 1003.29 1002.70 1002.48 1002.27 1002.07 1001.76 1001.48 1001.41 1001.62 1001.94 1001.95 1001.39 1001.96 1002.51 1002.67 1002.76
1015.63 1016.16 1016.37 1016.45 1016.80 1017.25 1017.53 1017.72 1017.96 1018.02 1017.93 1017.67 1017.25 1016.56 1015.73 1015.44 1014.36 1013.83 1013.49 1012.96 1012.20 1012.14 1012.50 1012.58 1012.27 1011.83 1011.83 1011.82 1011.62 1011.04 1010.63 1009.70 1009.11 1008.37 1007.27 1006.07 1004.83 1004.29 1003.63 1003.05 1002.59 1002.17 1001.70 1001.43 1001.26 1001.17 1001.34 1001.75 1001.99 1002.06 1002.17 1002.16 1002.17 1002.24
1015.68 1015.80 1015.82 1016.25 1016.63 1017.12 1017.47 1017.77 1017.92 1017.79 1017.44 1017.02 1016.44 1015.86 1015.76 1015.30 1014.59 1013.94 1013.44 1012.65 1012.14 1012.32 1012.48 1012.22 1011.88 1011.27 1011.48 1011.40 1011.00 1010.51 1009.83 1009.37 1008.77 1007.97 1007.08 1005.97 1005.42 1004.69 1003.99 1003.33 1002.83 1002.18 1001.66 1001.34 1001.13 1000.94 1000.93 1001.06 1001.43 1001.78 1002.00 1002.06 1002.00 1002.01
1015.57 1015.61 1015.65 1016.15 1016.65 1017.21 1017.48 1017.47 1017.29 1017.02 1016.80 1016.24 1016.17 1015.32 1015.14 1014.54 1013.92 1013.43 1012.76 1012.12 1012.23 1011.99 1011.95 1011.61 1011.27 1011.12 1011.14 1010.96 1010.47 1009.86 1009.50 1008.97 1008.50 1008.01 1007.27 1006.34 1005.70 1005.11 1004.33 1003.77 1003.26 1002.43 1001.91 1001.88 1001.69 1001.59 1001.44 1001.42 1001.62 1001.93 1002.28 1002.33 1002.34 1002.41
1015.43 1015.41 1015.65 1016.09 1016.45 1016.91 1017.14 1017.08 1017.00 1016.74 1016.04 1015.67 1015.15 1014.70 1014.29 1013.65 1012.73 1012.23 1011.91 1011.48 1011.70 1011.51 1011.43 1011.27 1011.18 1010.95 1010.59 1010.32 1010.19 1009.66 1009.28 1009.16 1008.78 1008.15 1007.50 1006.71 1005.98 1005.45 1004.49 1004.00 1003.16 1003.10 1003.13 1002.95 1002.58 1002.57 1002.48 1002.43 1002.34 1002.35 1002.61 1002.73 1003.16 1003.23
1015.31 1015.58 1015.90 1016.23 1016.51 1016.76 1016.72 1016.60 1016.47 1016.37 1015.66 1014.78 1014.49 1014.11 1013.70 1012.96 1012.08 1011.67 1011.37 1011.18 1011.12 1011.27 1011.47 1011.20 1010.85 1010.22 1009.83 1009.62 1009.60 1009.44 1009.12 1008.93 1008.69 1008.21 1007.79 1006.96 1006.30 1005.83 1005.42 1004.98 1004.48 1003.93 1004.08 1004.15 1003.90 1003.53 1003.33 1003.23 1002.99 1002.81 1003.05 1003.27 1003.29 1003.34
1015.62 1016.02 1016.30 1016.57 1016.75 1016.65 1016.45 1015.99 1015.85 1015.32 1014.71 1014.40 1013.59 1013.35 1012.75 1012.21 1011.93 1011.54 1011.25 1010.97 1011.02 1010.93 1010.82 1010.32 1010.04 1009.70 1009.52 1009.38 1009.17 1009.13 1008.93 1008.72 1008.60 1008.36 1008.20 1007.70 1007.00 1006.53 1006.01 1005.61 1005.22 1005.11 1004.80 1005.19 1004.92 1004.42 1004.26 1004.17 1004.24 1004.18 1003.76 1003.77 1003.76 1003.95
1015.67 1015.91 1016.42 1016.68 1016.66 1016.39 1016.10 1015.44 1015.20 1014.43 1014.36 1013.60 1013.20 1012.76 1012.53 1012.20 1011.91 1011.54 1011.39 1011.11 1010.89 1010.49 1010.36 1010.19 1009.98 1009.72 1009.46 1009.20 1009.03 1008.76 1008.56 1008.46 1008.36 1008.18 1008.02 1007.73 1007.55 1006.98 1006.69 1006.41 1006.13 1006.18 1005.88 1005.59 1005.30 1005.22 1004.96 1004.36 1003.84 1003.84 1004.26 1004.62 1004.44 1004.28
1015.67 1015.88 1016.21 1016.38 1016.51 1016.00 1015.21 1014.78 1014.72 1013.87 1013.59 1012.86 1012.62 1012.58 1012.52 1012.24 1011.85 1011.49 1011.33 1010.93 1010.45 1009.98 1009.86 1009.84 1009.55 1009.28 1009.13 1008.70 1008.60 1008.35 1008.07 1008.14 1008.37 1008.11 1008.07 1008.00 1007.78 1007.55 1007.35 1007.08 1006.97 1006.91 1006.84 1006.68 1006.38 1006.19 1006.04 1005.89 1005.69 1005.57 1005.65 1005.66 1005.63 1005.80
1015.68 1015.91 1015.83 1015.77 1015.78 1015.20 1014.50 1014.02 1013.60 1013.19 1012.68 1012.64 1012.71 1012.55 1012.30 1012.07 1011.73 1011.58 1011.32 1010.61 1009.84 1009.53 1009.49 1009.46 1009.37 1009.06 1008.69 1008.51 1008.48 1008.35 1008.15 1008.12 1008.13 1008.03 1007.97 1007.98 1008.08 1008.07 1007.83 1007.69 1007.54 1007.29 1007.24 1007.17 1007.01 1006.98 1006.92 1007.07 1007.00 1006.88 1006.76 1006.77 1006.86 1006.99
1016.02 1015.73 1015.52 1015.25 1015.05 1014.65 1013.81 1013.03 1012.66 1012.50 1012.56 1012.60 1012.57 1012.28 1011.99 1011.88 1011.66 1011.38 1011.03 1010.35 1009.71 1009.29 1009.03 1009.05 1009.13 1009.06 1008.88 1008.64 1008.45 1008.19 1007.99 1007.90 1007.96 1008.12 1008.15 1008.07 1008.36 1008.13 1008.22 1008.08 1008.15 1008.19 1007.73 1007.64 1007.75 1007.72 1007.80 1007.66 1007.49 1007.45 1007.51 1007.70 1007.82 1007.97
1015.42 1015.21 1015.12 1014.34 1013.96 1013.74 1013.10 1012.92 1012.55 1012.54 1012.49 1012.38 1012.22 1012.04 1011.88 1011.70 1011.42 1011.04 1010.45 1009.57 1009.29 1009.06 1008.95 1008.77 1008.83 1008.84 1008.73 1008.70 1008.55 1008.24 1008.05 1007.72 1007.79 1008.18 1008.49 1008.36 1008.47 1008.57 1008.91 1008.84 1008.72 1008.68 1008.54 1008.34 1008.22 1008.23 1008.30 1008.25 1008.29 1008.40 1008.59 1008.71 1008.69 1008.54
1015.27 1014.68 1014.14 1013.47 1013.18 1012.84 1012.62 1012.57 1012.44 1012.43 1012.30 1012.05 1011.91 1011.76 1011.69 1011.32 1010.74 1009.93 1009.16 1008.94 1008.97 1008.73 1008.64 1008.59 1008.60 1008.59 1008.69 1008.62 1008.45 1008.19 1007.87 1007.76 1007.77 1008.17 1008.55 1008.72 1008.73 1008.85 1008.93 1009.08 1009.38 1009.46 1009.09 1008.82 1008.71 1008.74 1008.79 1008.99 1009.12 1009.16 1009.14 1009.24 1009.30 1009.24
1014.62 1014.25 1013.68 1012.99 1012.77 1012.53 1012.34 1012.15 1012.16 1012.11 1012.06 1011.96 1011.97 1011.75 1011.47 1011.02 1010.15 1009.15 1008.88 1008.75 1008.62 1008.64 1008.61 1008.63 1008.61 1008.54 1008.57 1008.61 1008.57 1008.48 1008.48 1008.40 1008.48 1008.75 1008.98 1009.32 1009.50 1009.45 1009.37 1009.43 1009.42 1009.39 1009.47 1009.64 1009.61 1009.60 1009.69 1010.03 1010.10 1010.19 1010.24 1010.28 1010.49 1010.51
1014.18 1013.34 1013.02 1012.64 1012.37 1012.10 1011.88 1011.76 1011.72 1011.72 1011.71 1011.76 1011.81 1011.57 1011.19 1010.20 1008.92 1008.66 1008.82 1008.66 1008.47 1008.64 1008.69 1008.89 1009.04 1008.87 1008.91 1008.92 1008.92 1008.91 1008.84 1008.79 1009.00 1009.43 1009.67 1009.94 1010.11 1010.06 1009.79 1009.82 1009.81 1009.82 1009.85 1009.98 1010.05 1010.17 1010.17 1010.26 1010.35 1010.27 1010.76 1010.89 1011.02 1011.07
1012.96 1012.50 1012.34 1012.02 1011.98 1011.65 1011.30 1011.19 1011.27 1011.22 1011.36 1011.49 1011.54 1011.33 1010.88 1009.75 1008.58 1008.20 1008.32 1008.46 1008.57 1008.52 1008.72 1008.91 1009.01 1009.07 1009.36 1009.40 1009.63 1009.67 1009.45 1009.30 1009.20 1009.24 1009.55 1009.61 1009.68 1009.46 1009.81 1010.01 1010.02 1010.00 1010.04 1010.05 1010.16 1010.29 1010.44 1010.45 1010.59 1010.73 1010.89 1011.18 1011.41 1011.47
1012.23 1012.09 1011.89 1011.57 1011.40 1011.00 1010.84 1010.83 1010.98 1011.16 1011.27 1011.22 1011.14 1011.18 1010.77 1009.89 1008.67 1008.12 1007.97 1008.17 1008.33 1008.52 1008.74 1009.03 1009.12 1009.22 1009.28 1009.45 1009.60 1009.69 1009.73 1009.53 1009.42 1009.31 1009.16 1009.16 1009.31 1009.59 1009.86 1009.96 1010.08 1010.25 1010.39 1010.45 1010.36 1010.37 1010.51 1010.69 1010.74 1010.92 1011.27 1011.53 1011.73 1011.74
1011.86 1011.63 1011.37 1011.14 1010.89 1010.72 1010.71 1010.78 1010.99 1011.11 1011.12 1011.11 1010.93 1010.72 1010.41 1010.10 1009.45 1008.32 1007.85 1008.01 1008.26 1008.39 1008.49 1008.64 1008.75 1008.79 1008.69 1008.77 1008.86 1008.93 1009.19 1009.25 1009.18 1009.03 1009.03 1009.21 1009.36 1009.83 1009.87 1009.97 1010.01 1010.11 1010.27 1010.31 1010.45 1010.49 1010.49 1010.73 1010.97 1011.06 1011.30 1011.54 1011.69 1011.80
1010.91 1010.58 1010.51 1010.51 1010.50 1010.54 1010.66 1010.68 1010.76 1010.81 1010.73 1010.63 1010.34 1010.21 1009.99 1009.77 1009.11 1008.22 1007.53 1007.43 1007.68 1007.80 1007.92 1007.89 1008.03 1008.34 1008.36 1008.50 1008.56 1008.66 1008.70 1008.78 1008.86 1008.91 1009.04 1009.21 1009.47 1009.77 1009.96 1010.01 1010.06 1010.11 1010.24 1010.46 1010.59 1010.57 1010.67 1011.04 1011.41 1011.45 1011.66 1011.85 1012.08 1012.21
Wind_Speed
11 10 9 8 8 7 8 9 10 11 12 12 9 11 11 12 12 5 3 2 2 3 8 7 6 5 1 2 3 5 6 2 4 3 0 3 3 3 1 2 2 5 5 4 3 2 6 4 1 6 6 3 3 3
11 11 10 8 8 8 7 9 9 10 12 12 7 9 8 9 10 6 2 2 1 3 7 3 7 10 10 9 4 3 4 1 4 1 1 1 2 2 3 4 1 3 5 3 7 7 4 4 5 5 1 5 4 5
12 12 10 9 9 8 7 8 9 10 11 11 6 7 8 8 8 5 3 3 2 2 6 4 5 4 3 10 12 5 4 5 3 4 3 2 2 2 2 4 1 1 2 1 4 3 5 5 6 5 3 7 8 4
13 12 11 10 9 8 7 7 9 10 11 9 6 6 8 8 7 6 1 1 2 3 4 8 3 9 4 5 11 18 5 2 2 2 0 3 2 4 4 3 2 4 3 1 6 7 8 6 5 4 9 7 3 4
13 13 12 10 10 8 7 7 8 10 10 6 6 7 9 9 8 5 3 3 2 1 3 7 12 5 6 6 9 11 11 5 1 2 2 5 3 2 2 1 4 4 5 3 6 4 2 7 7 6 6 6 8 7
13 13 12 11 10 8 8 7 8 10 8 6 7 8 8 8 9 2 2 1 2 1 3 5 5 6 5 2 3 5 7 5 3 4 5 3 4 4 3 5 5 9 7 9 11 4 6 7 10 6 5 5 5 6
14 13 13 11 10 8 8 8 8 9 7 5 7 8 8 7 2 1 3 1 2 4 2 5 6 6 5 4 3 2 2 2 3 2 3 4 4 5 3 15 9 9 11 11 9 2 7 3 6 6 5 6 4 2
13 13 12 11 10 8 7 7 8 7 6 7 9 10 10 8 3 4 2 8 4 2 1 3 6 6 5 3 3 2 1 2 2 3 2 3 1 2 5 6 8 11 14 10 9 10 9 5 3 6 3 5 2 2
13 14 13 11 10 8 6 7 8 7 7 9 11 10 2 2 0 0 4 8 1 2 1 2 3 5 5 2 3 3 2 3 2 2 4 3 3 6 6 6 4 6 5 8 12 13 9 11 10 8 5 6 5 5
14 14 12 11 9 7 6 6 7 6 7 9 2 2 2 2 7 5 2 0 1 1 1 3 1 5 1 3 3 3 1 2 3 4 2 3 5 6 6 6 5 7 8 6 8 12 6 6 7 7 9 7 6 8
14 13 12 10 8 6 5 6 5 5 3 1 2 2 3 6 1 1 2 2 2 3 3 4 4 3 1 3 3 0 2 2 3 2 2 3 4 4 5 6 7 8 10 12 14 15 9 7 7 10 7 9 6 9
14 13 11 10 8 6 5 4 2 2 1 2 2 3 3 2 1 2 3 2 4 4 3 3 4 5 3 2 1 2 2 2 5 4 3 4 2 3 7 12 10 7 11 13 11 14 9 8 8 7 7 7 6 6
14 12 10 9 7 5 5 3 3 3 2 1 1 2 1 1 0 4 4 3 3 3 4 3 3 3 1 1 2 2 3 4 4 3 4 3 4 11 18 17 16 11 10 12 9 10 7 8 5 5 6 6 7 7
13 12 10 8 7 5 5 3 2 3 2 1 2 3 4 4 4 5 3 3 4 3 2 3 3 2 1 1 1 2 3 3 3 3 4 7 16 20 20 10 11 13 11 8 9 8 8 7 5 6 6 5 7 11
13 10 8 7 7 6 5 4 5 1 1 2 2 4 5 4 4 3 3 3 3 3 2 2 2 2 2 2 2 3 3 3 3 5 8 12 20 13 12 8 5 6 5 5 5 7 5 6 3 6 1 5 7 5
13 9 4 7 10 7 7 5 1 1 1 3 4 3 3 2 4 1 2 4 1 1 2 1 3 1 2 2 2 4 2 3 4 6 9 12 15 14 12 11 7 5 5 4 5 4 5 6 7 6 5 4 5 7
9 2 6 10 10 9 9 2 1 3 3 3 4 3 3 4 6 4 2 4 0 2 2 1 2 1 3 2 3 3 3 4 5 8 7 11 12 14 12 7 5 5 3 0 3 5 2 3 5 6 6 4 3 5
1 3 7 12 8 6 2 2 2 3 5 4 3 3 3 4 3 4 4 3 2 1 2 2 0 1 1 3 4 3 3 4 4 5 6 8 11 12 9 7 4 7 11 8 6 6 6 6 5 4 5 3 5 5
3 3 14 15 5 4 3 3 2 3 5 3 4 3 3 4 4 4 4 4 4 2 1 2 2 3 4 4 4 4 3 3 4 4 4 7 9 11 10 9 12 12 10 9 9 6 6 6 4 5 5 5 6 4
5 9 12 7 2 1 3 2 1 2 4 4 2 3 4 4 3 3 3 3 3 3 1 3 4 4 3 3 4 4 3 2 3 4 4 5 6 9 9 8 6 8 4 7 5 2 5 7 6 5 5 4 5 5
3 5 9 4 1 2 2 2 3 4 3 3 3 2 4 1 2 2 2 3 1 4 3 4 4 4 4 4 3 2 5 3 2 2 2 4 7 5 6 5 6 6 5 4 2 5 5 4 0 1 4 4 4 5
3 6 3 1 2 3 3 3 3 2 2 4 3 1 3 3 2 2 3 1 2 3 3 3 2 2 4 4 3 4 5 3 3 2 1 2 5 5 5 5 5 4 4 4 4 4 5 6 7 7 5 4 5 7
7 3 2 2 2 3 5 2 2 3 3 2 2 2 2 3 2 3 2 2 4 3 3 3 4 4 6 5 3 6 5 4 3 3 0 2 3 4 5 6 5 4 5 6 4 5 5 7 7 5 4 5 6 6
3 3 3 5 4 4 2 3 3 3 1 1 2 3 2 2 3 2 3 3 4 2 1 2 2 4 3 2 2 2 3 0 1 1 1 3 2 2 2 4 4 4 3 2 3 4 5 4 4 4 4 6 6 6
1 3 1 2 2 3 3 3 3 1 1 1 1 2 2 2 2 2 2 4 3 3 3 2 2 3 2 3 3 3 2 2 3 2 3 2 2 2 4 4 4 4 3 4 4 4 4 4 5 6 7 6 8 8
1 3 6 3 3 3 1 2 1 1 0 1 2 2 1 1 2 3 4 3 3 2 2 3 1 1 2 1 2 3 3 2 3 4 1 1 2 3 3 3 4 5 5 3 3 6 6 7 7 10 8 8 9 9
2 4 3 4 2 2 1 0 1 1 2 2 1 1 1 1 2 4 3 2 2 2 2 1 2 2 1 1 1 3 3 3 4 5 3 4 4 4 4 5 4 1 2 4 6 7 8 7 7 7 8 8 7 7
4 3 3 1 2 2 2 1 2 2 3 2 0 1 2 2 4 3 3 2 2 1 3 3 2 3 3 3 2 3 5 6 9 7 5 6 5 4 4 3 3 6 4 4 4 5 6 6 6 7 8 8 7 6
3 3 1 2 1 1 2 3 2 2 2 1 1 1 3 4 4 1 1 1 2 3 4 4 3 3 4 4 4 3 3 4 8 9 7 2 1 2 2 2 2 2 2 3 6 4 6 6 6 7 7 6 4 4
3 3 2 2 3 4 2 4 2 2 2 2 2 2 3 4 4 2 0 2 3 3 4 3 3 4 3 3 3 2 2 0 1 5 6 4 5 1 3 2 2 2 2 3 3 3 5 4 4 3 4 3 3 3
2 1 2 2 2 3 3 2 1 1 0 1 1 2 3 4 5 2 0 2 4 4 5 4 3 2 4 3 3 3 2 3 4 5 3 3 2 3 2 2 2 2 2 1 2 3 3 1 2 4 4 4 4 3
1 4 3 3 3 1 2 1 2 1 1 1 2 1 2 2 3 4 1 3 3 3 3 5 4 4 5 3 3 3 4 3 5 6 8 4 2 3 3 3 2 3 4 3 2 1 1 3 3 6 5 7 6 5
3 3 4 1 1 1 0 2 1 0 1 2 2 3 3 3 2 4 3 3 3 3 4 4 2 2 3 4 3 1 2 3 3 4 3 2 8 8 4 2 3 3 4 3 2 2 2 6 4 8 9 9 8 6
Wind_Direction
252 251 250 252 271 286 303 314 324 330 332 335 351 349 4 4 3 16 281 319 39 288 275 226 230 200 242 156 192 293 349 324 342 22 131 229 208 242 284 266 205 198 168 203 102 139 269 6 119 170 228 252 224 202
248 245 243 242 256 273 292 305 317 324 324 324 345 346 357 0 3 14 319 334 28 214 255 287 238 226 217 193 156 237 229 225 233 85 318 296 317 331 197 211 10 253 187 203 183 222 260 280 256 291 257 275 223 166
245 238 234 232 243 261 280 298 310 317 316 312 327 338 345 349 356 13 292 299 0 279 291 330 247 274 198 224 206 179 256 219 253 187 188 254 283 127 286 270 282 261 138 240 19 299 272 293 304 278 274 260 279 151
243 234 223 223 232 250 266 289 301 308 305 314 321 329 329 330 334 342 268 207 117 267 295 283 319 292 249 197 194 211 224 34 58 34 179 234 224 161 230 253 223 207 134 211 273 292 293 292 265 307 327 321 192 108
243 231 217 212 228 240 260 281 295 301 309 312 325 326 324 323 325 308 213 234 234 74 301 288 309 258 273 226 221 216 227 236 252 265 195 221 223 135 239 28 243 192 193 180 237 234 181 265 298 321 323 331 292 129
239 226 205 206 215 229 249 271 285 298 309 317 322 318 318 331 347 2 45 70 216 281 290 302 293 298 309 340 134 181 207 190 208 177 223 241 253 163 208 233 233 220 222 209 248 224 216 267 279 266 288 311 318 289
234 215 199 203 211 226 245 262 276 292 297 311 306 305 304 315 72 170 212 158 166 358 285 301 309 287 312 347 1 12 21 204 199 247 230 214 244 178 210 251 239 232 237 250 238 198 286 200 267 351 317 320 308 91
225 201 190 199 207 221 244 262 276 287 289 299 298 298 294 290 256 275 248 259 160 194 128 285 278 330 3 327 316 360 308 0 264 241 304 217 321 164 247 251 246 247 244 245 244 213 227 234 260 283 280 318 247 196
207 186 187 194 199 217 241 258 278 291 283 293 301 307 39 59 194 221 82 122 89 167 272 309 299 272 352 302 254 327 74 314 308 246 246 131 223 222 220 215 281 281 255 276 271 266 226 225 244 250 231 259 215 199
187 179 182 190 196 210 235 257 282 284 290 306 15 28 316 212 298 328 87 176 221 198 125 249 232 267 25 3 302 314 31 275 304 246 157 219 250 241 236 219 250 273 267 266 266 266 257 228 220 226 217 220 203 202
171 175 181 187 192 208 233 257 279 310 349 50 17 264 273 318 239 192 216 193 141 240 219 234 222 256 251 220 263 2 317 263 277 330 264 252 264 231 175 232 262 267 264 256 245 244 237 233 214 222 206 209 192 174
170 172 176 180 186 195 226 254 227 66 137 173 240 293 311 338 208 261 217 181 207 236 198 212 226 200 261 216 261 258 263 281 260 341 275 253 264 290 288 288 297 292 281 291 244 225 227 224 211 190 183 188 180 172
161 167 172 171 179 191 209 216 180 173 65 55 255 270 99 218 61 228 207 243 223 203 218 213 266 218 208 225 243 281 269 246 319 251 256 285 312 300 295 286 286 284 284 298 235 206 198 207 197 175 200 191 171 189
160 161 163 168 178 187 188 188 152 112 81 140 229 272 219 196 233 202 214 207 249 244 279 236 245 217 160 203 246 267 264 299 277 291 279 307 298 291 295 268 250 271 279 284 215 191 179 188 214 225 232 209 154 218
147 152 158 175 178 179 173 171 153 95 114 248 224 240 229 253 253 253 236 278 245 247 146 298 256 209 158 268 218 293 268 272 272 267 292 302 305 322 342 349 287 271 271 263 219 204 173 169 211 311 106 233 221 224
136 126 194 181 179 176 164 126 94 119 225 235 235 267 248 300 275 318 306 269 260 238 68 93 261 234 206 216 246 231 249 272 279 305 303 303 317 330 334 336 325 310 294 254 192 189 192 173 197 210 219 204 228 202
148 177 177 177 161 161 163 133 161 206 253 231 244 220 229 265 254 250 225 251 133 72 261 162 266 13 114 224 251 214 247 268 294 305 303 309 325 326 331 336 330 310 323 304 132 102 92 92 143 155 159 188 147 179
118 194 173 147 128 125 177 225 252 231 239 236 236 244 200 232 264 264 243 213 134 235 160 255 104 319 52 280 293 261 285 288 276 281 296 319 325 334 342 355 356 45 35 41 59 53 47 62 75 65 95 105 59 49
161 124 144 147 151 140 176 199 192 260 244 247 253 239 227 244 233 231 250 250 197 227 269 275 229 220 236 211 239 278 270 254 283 303 298 315 329 343 350 10 40 43 24 23 50 56 55 39 70 85 73 83 97 83
58 146 153 135 92 212 213 240 101 235 261 241 238 255 220 221 257 246 248 227 174 160 178 213 224 231 232 238 210 247 268 265 298 339 328 331 340 341 2 11 25 64 17 7 31 20 71 63 40 64 82 83 73 69
86 125 123 111 249 254 272 259 226 220 254 250 257 233 259 270 281 295 313 360 158 204 226 220 239 258 261 254 256 249 280 256 261 223 295 321 338 330 349 4 27 29 26 10 263 27 37 73 11 177 77 42 68 69
110 135 108 173 208 237 241 222 240 293 246 248 303 199 293 312 325 335 321 340 234 246 204 208 248 270 301 293 284 245 256 279 251 270 286 320 355 5 4 3 10 34 51 20 38 32 10 5 15 26 37 46 49 62
139 115 106 136 203 232 261 153 236 225 239 273 10 330 319 312 275 329 290 232 255 234 215 235 248 242 251 276 276 278 258 232 221 252 261 109 47 8 17 29 16 22 24 13 6 37 36 11 26 32 36 54 65 60
153 166 203 189 188 258 262 233 215 262 225 3 354 307 310 280 315 40 276 266 253 266 257 277 290 301 309 278 264 299 315 96 139 280 242 123 118 349 60 36 12 11 21 32 35 39 40 34 24 35 41 66 64 67
130 262 129 299 250 247 250 258 217 250 55 355 342 299 301 329 304 309 277 291 277 257 259 262 258 269 266 300 302 319 345 184 171 148 32 67 123 78 29 36 31 360 11 62 46 54 40 36 45 55 57 68 78 69
190 219 169 220 207 204 339 303 339 342 343 279 244 268 317 329 347 318 247 239 245 242 241 235 240 299 351 345 311 345 331 300 123 86 71 104 118 106 104 85 47 21 3 31 60 65 58 50 61 70 66 64 62 80
313 271 234 227 254 253 253 108 38 313 290 265 244 234 119 306 263 249 272 238 246 274 241 244 191 115 89 1 3 5 10 59 96 119 113 73 66 61 81 95 82 337 352 54 63 73 75 63 61 61 63 53 44 55
239 233 221 279 215 208 263 199 217 224 237 237 185 265 33 8 271 250 221 234 224 79 83 76 85 102 86 72 91 87 52 87 83 83 76 47 34 34 56 70 66 68 65 50 72 77 82 84 78 70 71 71 64 46
250 246 211 268 261 298 244 218 238 235 205 161 143 249 207 250 263 249 20 289 193 145 96 90 49 55 63 61 59 54 95 108 109 101 99 118 122 264 212 148 139 130 111 85 48 60 100 103 99 92 87 89 87 78
259 186 237 190 202 230 251 175 223 227 178 188 197 304 280 268 259 273 260 126 140 149 126 124 125 94 99 94 106 72 345 52 186 145 151 187 214 205 146 177 201 197 162 122 104 87 81 76 95 88 88 85 82 90
349 174 268 258 273 260 238 182 192 54 55 265 226 223 261 293 311 261 303 133 138 122 107 99 87 114 135 153 156 146 215 262 225 226 235 228 192 158 156 182 189 160 137 107 73 103 115 114 182 151 163 174 162 147
158 218 220 233 237 262 134 181 140 148 288 309 279 248 304 331 301 297 287 123 131 127 164 158 166 224 211 218 207 225 194 189 213 220 214 221 220 95 100 102 125 143 155 153 128 94 105 124 129 108 99 90 91 103
234 223 213 233 35 80 214 140 116 184 294 287 265 207 220 216 270 270 285 193 180 169 187 215 213 109 190 202 224 241 146 121 122 120 170 170 125 142 145 113 96 107 125 122 108 69 101 97 95 99 100 101 95 85